TimeEDT,TemperatureF,Dew PointF,Humidity,Sea Level PressureIn,VisibilityMPH,Wind Direction,Wind SpeedMPH,Gust SpeedMPH,PrecipitationIn,Events,Conditions,WindDirDegrees,DateUTC
12:51 AM,45.0,41.0,86,30.03,10.0,SSW,3.5,-,N/A,,Clear,210,2012-10-21 04:51:00
1:51 AM,42.1,39.0,89,30.04,8.0,Calm,Calm,-,N/A,,Clear,0,2012-10-21 05:51:00
2:51 AM,39.9,37.9,93,30.05,5.0,Calm,Calm,-,N/A,,Clear,0,2012-10-21 06:51:00
3:51 AM,39.0,37.9,96,30.07,5.0,SSW,3.5,-,N/A,,Clear,210,2012-10-21 07:51:00
4:51 AM,37.9,37.0,97,30.09,2.5,East,3.5,-,N/A,,Clear,100,2012-10-21 08:51:00
5:08 AM,37.4,37.4,100,30.08,4.0,Calm,Calm,-,N/A,,Clear,0,2012-10-21 09:08:00
5:51 AM,37.9,36.0,93,30.11,5.0,Calm,Calm,-,N/A,,Clear,0,2012-10-21 09:51:00
6:51 AM,36.0,35.1,97,30.13,3.0,Calm,Calm,-,N/A,,Clear,0,2012-10-21 10:51:00
7:23 AM,35.6,35.6,100,30.14,5.0,Calm,Calm,-,N/A,,Scattered Clouds,0,2012-10-21 11:23:00
7:51 AM,35.1,34.0,96,30.15,2.5,East,3.5,-,N/A,,Clear,100,2012-10-21 11:51:00
8:19 AM,37.4,35.6,93,30.15,3.0,Calm,Calm,-,N/A,,Mostly Cloudy,0,2012-10-21 12:19:00
8:51 AM,39.0,39.0,100,30.16,4.0,Calm,Calm,-,N/A,,Overcast,0,2012-10-21 12:51:00
9:51 AM,44.1,42.1,93,30.18,8.0,Calm,Calm,-,N/A,,Clear,0,2012-10-21 13:51:00
10:51 AM,52.0,44.1,74,30.18,10.0,SW,3.5,-,N/A,,Clear,220,2012-10-21 14:51:00
11:51 AM,57.0,41.0,55,30.17,10.0,South,3.5,-,N/A,,Clear,180,2012-10-21 15:51:00
12:51 PM,59.0,39.9,49,30.17,10.0,Calm,Calm,-,N/A,,Clear,0,2012-10-21 16:51:00
1:51 PM,62.1,41.0,46,30.15,10.0,Variable,5.8,-,N/A,,Clear,0,2012-10-21 17:51:00
2:51 PM,63.0,39.9,43,30.13,10.0,Variable,3.5,-,N/A,,Clear,0,2012-10-21 18:51:00
3:51 PM,64.0,41.0,43,30.12,10.0,Calm,Calm,-,N/A,,Clear,0,2012-10-21 19:51:00
4:51 PM,66.0,41.0,40,30.11,10.0,Calm,Calm,-,N/A,,Clear,0,2012-10-21 20:51:00
5:51 PM,64.0,42.1,45,30.11,10.0,Calm,Calm,-,N/A,,Clear,0,2012-10-21 21:51:00
6:51 PM,60.1,41.0,49,30.12,10.0,ESE,3.5,-,N/A,,Clear,120,2012-10-21 22:51:00
7:51 PM,57.0,42.1,57,30.12,10.0,East,3.5,-,N/A,,Clear,100,2012-10-21 23:51:00
8:51 PM,53.1,43.0,69,30.13,10.0,East,3.5,-,N/A,,Clear,90,2012-10-22 00:51:00
9:51 PM,51.1,43.0,74,30.14,10.0,Calm,Calm,-,N/A,,Clear,0,2012-10-22 01:51:00
10:51 PM,50.0,43.0,77,30.13,10.0,East,3.5,-,N/A,,Clear,90,2012-10-22 02:51:00
11:51 PM,48.0,43.0,83,30.13,10.0,Calm,Calm,-,N/A,,Clear,0,2012-10-22 03:51:00